Weather History for KLOL - July, 2013

Change the Weather History Date:

Sunday, July 14, 2013

  Actual Average Record
Temperature  
Mean Temperature 74 °F -  
Max Temperature 96 °F 95 °F 108 °F (2014)
Min Temperature 53 °F 55 °F 44 °F (1966)
Cooling Degree Days 9    
Growing Degree Days 24 (Base 50)    
Moisture  
Dew Point 23 °F    
Average Humidity 14    
Maximum Humidity 30    
Minimum Humidity 5    
Precipitation  
Precipitation 0.00 in - - ()
Sea Level Pressure  
Sea Level Pressure 29.91 in    
Wind  
Wind Speed 4 mph (WNW)    
Max Wind Speed 14 mph    
Max Gust Speed 24 mph    
Visibility 10 miles    
Events      
Averages and records for this station are not official NWS values.
T = Trace of Precipitation, MM = Missing Value Source: NWS Daily Summary

Daily Weather History Graph

Daily Weather History Graph

Search for Another Location

Airport or City:

Trip Planner

Search our weather history database for the weather conditions in past years. The results will help you decide how hot, cold, wet, or windy it might be!

Date:

Astronomy

Jul. 14, 2013 Rise Set
Actual Time 5:37 AM PDT 8:22 PM PDT
Civil Twilight 5:05 AM PDT 8:54 PM PDT
Nautical Twilight 4:25 AM PDT 9:34 PM PDT
Astronomical Twilight 3:39 AM PDT 10:19 PM PDT
Moon 11:59 AM PDT (7/14) 11:37 PM PDT (7/14)
Length of Visible Light 15h 49m
Length of Day
14h 45m
Waxing Crescent, 36% of the Moon is Illuminated
Jul 14
Waxing Crescent
Jul 15
First Quarter
Jul 22
Full
Jul 29
Last Quarter
Aug 6
New

Hourly Weather History & Observations

Time (PDT) Temp. Dew Point Humidity Pressure Visibility Wind Dir Wind Speed Gust Speed Precip Events Conditions
12:53 AM 75.9 °F 21.9 °F 13% 29.90 in 10.0 mi Calm Calm - N/A   Clear
1:53 AM 71.1 °F 25.0 °F 18% 29.93 in 10.0 mi NNE 8.1 mph - N/A   Clear
2:53 AM 66.0 °F 27.0 °F 23% 29.94 in 10.0 mi North 6.9 mph - N/A   Clear
3:53 AM 64.9 °F 26.1 °F 23% 29.95 in 10.0 mi NNW 4.6 mph - N/A   Clear
4:53 AM 59.0 °F 26.1 °F 28% 29.97 in 10.0 mi SSW 3.5 mph - N/A   Clear
5:53 AM 53.1 °F 21.9 °F 30% 30.00 in 10.0 mi Calm Calm - N/A   Clear
6:53 AM 60.1 °F 25.0 °F 26% 29.99 in 10.0 mi WSW 4.6 mph - N/A   Clear
7:53 AM 72.0 °F 28.0 °F 20% 29.99 in 10.0 mi Calm Calm - N/A   Clear
8:53 AM 78.1 °F 28.0 °F 16% 30.00 in 10.0 mi Calm Calm - N/A   Clear
9:53 AM 82.9 °F 28.9 °F 14% 29.99 in 10.0 mi Variable 3.5 mph - N/A   Clear
10:53 AM 86.0 °F 26.1 °F 11% 29.97 in 10.0 mi NE 6.9 mph - N/A   Clear
11:53 AM 89.1 °F 24.1 °F 9% 29.95 in 10.0 mi Variable 3.5 mph - N/A   Clear
12:53 PM 91.0 °F 17.1 °F 7% 29.93 in 10.0 mi NE 5.8 mph - N/A   Clear
1:53 PM 93.9 °F 19.9 °F 7% 29.91 in 10.0 mi SSE 8.1 mph - N/A   Clear
2:53 PM 95.0 °F 21.0 °F 7% 29.88 in 10.0 mi SSW 9.2 mph - N/A   Clear
3:53 PM 93.9 °F 19.9 °F 7% 29.86 in 10.0 mi South 8.1 mph - N/A   Clear
4:53 PM 95.0 °F 18.0 °F 6% 29.85 in 10.0 mi South 11.5 mph - N/A   Clear
5:53 PM 95.0 °F 15.1 °F 5% 29.84 in 10.0 mi WNW 6.9 mph - N/A   Clear
6:53 PM 93.9 °F 15.1 °F 6% 29.82 in 10.0 mi Calm Calm - N/A   Clear
7:53 PM 89.1 °F 21.0 °F 8% 29.81 in 10.0 mi SSE 4.6 mph - N/A   Clear
8:53 PM 82.0 °F 21.9 °F 11% 29.82 in 10.0 mi WSW 4.6 mph - N/A   Clear
9:53 PM 73.9 °F 16.0 °F 11% 29.84 in 10.0 mi NW 5.8 mph - N/A   Clear
10:53 PM 79.0 °F 26.1 °F 14% 29.83 in 10.0 mi North 9.2 mph - N/A   Clear
11:53 PM 80.1 °F 28.0 °F 15% 29.82 in 10.0 mi NNW 13.8 mph 24.2 mph N/A   Clear